Content
SEND FEEDBACK

Daily
Averages
Monthly
Summary
United States of America

BARTON HILLS, MICHIGAN


Home > North America > United States > Michigan
Elevation: 899 feet     Latitude: 42 18N     Longitude: 083 43W

WEATHER
 
SELECT A DAY
Number of Records: 206,948;   Date Range: 1/1/95 - 10/19/14
 
SHARE

PRINT THIS DATA

[ ← Previous Day ]
WEATHER ALMANAC - NOVEMBER 29, 2013
[ Next Day → ]
[ °C ]   °F
Weather ElementAverageHighLow
Temperature24.3 °F33.1 °F (3:53 pm)12 °F (1:53 am)
Dewpoint16 °F21 °F (11:53 pm)8.1 °F (2:53 am)
Humidity72.5 %92 % (1:53 am)45 % (2:53 pm)
Barometer30.60 in30.67 in (10:53 am)30.46 in (1:53 am)
Wind Speed2.3 mph6.9 mph (8:53 pm)
Weather ElementAverage
Visibility9.8 mi
Wind DirectionENE (79.6 °)

Weather ElementTotal
Precipitation---
Heating Degree Days42.5 (Base 65)
Averaged from 23 records on November 29, 2013
WEATHER CONDITIONS BREAKOUT
WIND DIRECTION BREAKOUT
WEATHER BY HOUR - NOVEMBER 29, 2013
[ °C ]   °F
Local TimeTemperatureDewpointHumidityBarometerVisibilityWind DirectionWind SpeedGust SpeedPrecipitationEventsConditions
1:53 AM12.0 °F10.0 °F92 %30.46 in9.0 miCalmClear
2:53 AM12.0 °F8.1 °F84 %30.50 in10.0 miCalmOvercast
3:53 AM16.0 °F12.0 °F84 %30.51 in10.0 miCalmOvercast
4:53 AM19.0 °F15.1 °F85 %30.53 in10.0 miCalmOvercast
5:53 AM19.0 °F16.0 °F88 %30.56 in10.0 miCalmOvercast
6:53 AM21.0 °F16.0 °F81 %30.58 in10.0 miNorth (350°)3.5 mphClear
7:53 AM12.9 °F10.0 °F88 %30.62 in8.0 miCalmClear
8:53 AM19.9 °F18.0 °F92 %30.64 in9.0 miCalmClear
9:53 AM27.0 °F19.9 °F75 %30.66 in10.0 miCalmClear
10:53 AM28.9 °F19.9 °F69 %30.67 in10.0 miCalmClear
11:53 AM30.0 °F19.0 °F64 %30.66 in10.0 miWSW (240°)3.5 mphClear
12:53 PM32.0 °F16.0 °F52 %30.65 in10.0 miCalmClear
1:53 PM30.9 °F14.0 °F50 %30.63 in10.0 miCalmClear
2:53 PM32.0 °F12.9 °F45 %30.63 in10.0 miWSW (240°)3.5 mphClear
3:53 PM33.1 °F15.1 °F48 %30.64 in10.0 miVariable3.5 mphClear
4:53 PM30.9 °F14.0 °F50 %30.65 in10.0 miCalmClear
5:53 PM28.0 °F18.0 °F66 %30.64 in10.0 miSSE (150°)5.8 mphClear
6:53 PM26.1 °F18.0 °F71 %30.64 in10.0 miSE (140°)4.6 mphClear
7:53 PM25.0 °F18.0 °F75 %30.64 in10.0 miSSE (150°)4.6 mphClear
8:53 PM24.1 °F18.0 °F77 %30.62 in10.0 miSE (140°)6.9 mphClear
9:53 PM25.0 °F19.0 °F78 %30.60 in10.0 miSE (130°)5.8 mphClear
10:53 PM26.1 °F19.9 °F78 %30.58 in10.0 miSE (140°)5.8 mphClear
11:53 PM28.0 °F21.0 °F75 %30.56 in10.0 miSSE (150°)5.8 mphClear
Hourly data recorded from KARB, located miles away from Barton Hills, Michigan







STORIES FROM OUR PARTNERS